HUANJING 1A (HJ-1A)

Last updated on Sun Apr 12 2026 00:02:34 GMT+0000 (Coordinated Universal Time)

1 33320U 08041A 26101.54444919 .00001415 00000+0 17628-3 0 9991 2 33320 97.6668 89.9794 0019252 2.6290 357.5022 14.83839194948521
UTC large
Height (km)
Speed (km/s)
/
Latitude / Longitude
Inclination (degrees)
Orbital Period (minutes)
Azimuth
Elevation
Range (km)
Doppler Factor

Next 0 passes for location: London (51.5072 / 0.1276)

Sorry there are no passes over London.
HUANJING 1A (HJ-1A)